Meteo pe oră la Bolshoe Loshakovo

Astăzi, 6 Mai, Joi

Timp Temperatura Precipitaţii Vânt Presiune Umiditate
00:00 +4°C° 0 mm 2 m/s 739 mmHg 98%
01:00 +4°C° 0 mm 2 m/s 739 mmHg 98%
02:00 +4°C° 0 mm 2 m/s 739 mmHg 98%
03:00 +4°C° 0.4 mm 3 m/s 738 mmHg 98%
04:00 +5°C° 0.4 mm 3 m/s 737 mmHg 97%
05:00 +6°C° 0.4 mm 4 m/s 736 mmHg 97%
06:00 +7°C° 0.1 mm 4 m/s 736 mmHg 93%
07:00 +8°C° 0.1 mm 4 m/s 735 mmHg 89%
08:00 +10°C° 0 mm 5 m/s 735 mmHg 85%
09:00 +12°C° 0.3 mm 5 m/s 734 mmHg 82%
10:00 +14°C° 0.3 mm 6 m/s 733 mmHg 78%
11:00 +15°C° 0.3 mm 6 m/s 732 mmHg 74%
12:00 +14°C° 0.5 mm 7 m/s 732 mmHg 78%
13:00 +12°C° 0.5 mm 7 m/s 732 mmHg 81%
14:00 +11°C° 0.5 mm 7 m/s 732 mmHg 84%
15:00 +9°C° 0.4 mm 6 m/s 732 mmHg 87%
16:00 +7°C° 0.4 mm 6 m/s 733 mmHg 90%
17:00 +5°C° 0.4 mm 5 m/s 734 mmHg 92%
18:00 +5°C° 0.1 mm 5 m/s 735 mmHg 91%
19:00 +5°C° 0.1 mm 4 m/s 735 mmHg 90%
20:00 +5°C° 0.1 mm 4 m/s 736 mmHg 89%
21:00 +5°C° 0 mm 5 m/s 736 mmHg 87%
22:00 +5°C° 0 mm 5 m/s 737 mmHg 86%
23:00 +5°C° 0 mm 5 m/s 737 mmHg 85%

Mâine, 7 Mai, Vineri

Timp Temperatura Precipitaţii Vânt Presiune Umiditate
00:00 +3°C° 0 mm 5 m/s 738 mmHg 86%
01:00 +3°C° 0 mm 5 m/s 738 mmHg 87%
02:00 +3°C° 0 mm 5 m/s 738 mmHg 88%
03:00 +3°C° 0 mm 5 m/s 739 mmHg 87%
04:00 +4°C° 0 mm 4 m/s 739 mmHg 86%
05:00 +4°C° 0 mm 4 m/s 739 mmHg 86%
06:00 +3°C° 0 mm 5 m/s 739 mmHg 81%
07:00 +5°C° 0 mm 5 m/s 740 mmHg 75%
08:00 +6°C° 0 mm 5 m/s 740 mmHg 70%
09:00 +7°C° 0.2 mm 5 m/s 740 mmHg 65%
10:00 +8°C° 0.2 mm 6 m/s 740 mmHg 60%
11:00 +9°C° 0.2 mm 6 m/s 740 mmHg 55%
12:00 +9°C° 0.3 mm 5 m/s 741 mmHg 56%
13:00 +9°C° 0.3 mm 5 m/s 741 mmHg 58%
14:00 +9°C° 0.3 mm 5 m/s 741 mmHg 59%
15:00 +10°C° 0.1 mm 4 m/s 741 mmHg 60%
16:00 +10°C° 0.1 mm 4 m/s 742 mmHg 60%
17:00 +10°C° 0.1 mm 3 m/s 742 mmHg 61%
18:00 +9°C° 0 mm 3 m/s 742 mmHg 67%
19:00 +8°C° 0 mm 2 m/s 742 mmHg 73%
20:00 +6°C° 0 mm 2 m/s 742 mmHg 79%
21:00 +6°C° 0.1 mm 2 m/s 742 mmHg 83%
22:00 +6°C° 0.1 mm 2 m/s 741 mmHg 86%
23:00 +7°C° 0.1 mm 3 m/s 741 mmHg 90%

Poimâine, 8 Mai, Sâmbătă

Timp Temperatura Precipitaţii Vânt Presiune Umiditate
00:00 +7°C° 0.7 mm 3 m/s 740 mmHg 91%
01:00 +6°C° 0.7 mm 4 m/s 740 mmHg 93%
02:00 +6°C° 0.7 mm 4 m/s 739 mmHg 94%
03:00 +6°C° 1.5 mm 4 m/s 738 mmHg 94%
04:00 +6°C° 1.5 mm 5 m/s 738 mmHg 94%
05:00 +6°C° 1.5 mm 5 m/s 737 mmHg 93%
06:00 +7°C° 0.1 mm 5 m/s 737 mmHg 93%
07:00 +7°C° 0.1 mm 5 m/s 737 mmHg 92%
08:00 +8°C° 0.1 mm 4 m/s 737 mmHg 91%
09:00 +8°C° 0.2 mm 4 m/s 737 mmHg 88%
10:00 +10°C° 0.2 mm 3 m/s 737 mmHg 85%
11:00 +10°C° 0.2 mm 3 m/s 737 mmHg 82%
12:00 +10°C° 0.9 mm 3 m/s 737 mmHg 87%
13:00 +9°C° 0.9 mm 3 m/s 737 mmHg 91%
14:00 +8°C° 0.9 mm 3 m/s 736 mmHg 96%
15:00 +8°C° 1.8 mm 2 m/s 736 mmHg 96%
16:00 +7°C° 1.8 mm 2 m/s 736 mmHg 96%
17:00 +7°C° 1.8 mm 2 m/s 736 mmHg 97%
18:00 +5°C° 1.9 mm 3 m/s 736 mmHg 96%
19:00 +5°C° 1.9 mm 4 m/s 736 mmHg 96%
20:00 +3°C° 1.9 mm 5 m/s 736 mmHg 96%
21:00 +3°C° 1.9 mm 5 m/s 736 mmHg 96%
22:00 +2°C° 1.9 mm 5 m/s 736 mmHg 97%
23:00 +2°C° 1.9 mm 6 m/s 737 mmHg 97%

9 Mai, Duminică

Timp Temperatura Precipitaţii Vânt Presiune Umiditate
00:00 +2°C° 0.9 mm 6 m/s 737 mmHg 97%
01:00 +2°C° 0.9 mm 6 m/s 738 mmHg 97%
02:00 +2°C° 0.9 mm 6 m/s 739 mmHg 97%
03:00 +2°C° 0.1 mm 6 m/s 740 mmHg 96%
04:00 +2°C° 0.1 mm 6 m/s 741 mmHg 95%
05:00 +1°C° 0.1 mm 6 m/s 742 mmHg 95%
06:00 +2°C° 0 mm 6 m/s 743 mmHg 90%
07:00 +3°C° 0 mm 6 m/s 744 mmHg 85%
08:00 +3°C° 0 mm 6 m/s 745 mmHg 80%
09:00 +5°C° 0 mm 6 m/s 746 mmHg 70%
10:00 +7°C° 0 mm 6 m/s 747 mmHg 60%
11:00 +9°C° 0 mm 6 m/s 747 mmHg 50%
12:00 +9°C° 0 mm 6 m/s 748 mmHg 45%
13:00 +10°C° 0 mm 5 m/s 749 mmHg 41%
14:00 +10°C° 0 mm 5 m/s 750 mmHg 37%
15:00 +11°C° 0 mm 4 m/s 750 mmHg 40%
16:00 +11°C° 0 mm 4 m/s 751 mmHg 44%
17:00 +11°C° 0 mm 3 m/s 751 mmHg 47%
18:00 +9°C° 0 mm 3 m/s 752 mmHg 56%
19:00 +8°C° 0 mm 2 m/s 752 mmHg 65%
20:00 +6°C° 0 mm 2 m/s 753 mmHg 73%
21:00 +5°C° 0 mm 2 m/s 753 mmHg 75%
22:00 +4°C° 0 mm 2 m/s 754 mmHg 76%
23:00 +4°C° 0 mm 2 m/s 754 mmHg 78%

10 Mai, Luni

Timp Temperatura Precipitaţii Vânt Presiune Umiditate
00:00 +3°C° 0 mm 2 m/s 754 mmHg 78%
01:00 +3°C° 0 mm 2 m/s 755 mmHg 78%
02:00 +2°C° 0 mm 3 m/s 755 mmHg 78%
03:00 +3°C° 0 mm 3 m/s 755 mmHg 77%
04:00 +3°C° 0 mm 3 m/s 756 mmHg 75%
05:00 +4°C° 0 mm 3 m/s 756 mmHg 74%
06:00 +7°C° 0 mm 3 m/s 756 mmHg 69%
07:00 +7°C° 0 mm 4 m/s 756 mmHg 63%
08:00 +10°C° 0 mm 4 m/s 756 mmHg 58%
09:00 +11°C° 0 mm 4 m/s 756 mmHg 58%
10:00 +11°C° 0 mm 4 m/s 756 mmHg 58%
11:00 +12°C° 0 mm 5 m/s 757 mmHg 57%
12:00 +13°C° 0 mm 5 m/s 757 mmHg 55%
13:00 +15°C° 0 mm 4 m/s 757 mmHg 53%
14:00 +17°C° 0 mm 4 m/s 757 mmHg 51%
15:00 +17°C° 0 mm 4 m/s 756 mmHg 53%
16:00 +17°C° 0 mm 4 m/s 756 mmHg 55%
17:00 +17°C° 0 mm 4 m/s 756 mmHg 57%
18:00 +14°C° 0 mm 3 m/s 756 mmHg 65%
19:00 +12°C° 0 mm 3 m/s 757 mmHg 73%
20:00 +12°C° 0 mm 2 m/s 757 mmHg 81%
21:00 +10°C° 0 mm 2 m/s 757 mmHg 83%
22:00 +9°C° 0 mm 2 m/s 757 mmHg 86%
23:00 +8°C° 0 mm 2 m/s 757 mmHg 88%

11 Mai, Marţi

Timp Temperatura Precipitaţii Vânt Presiune Umiditate
00:00 +8°C° 0 mm 2 m/s 758 mmHg 89%
01:00 +8°C° 0 mm 2 m/s 758 mmHg 90%
02:00 +7°C° 0 mm 2 m/s 758 mmHg 91%
03:00 +7°C° 0 mm 2 m/s 758 mmHg 89%
04:00 +8°C° 0 mm 2 m/s 758 mmHg 86%
05:00 +8°C° 0 mm 2 m/s 758 mmHg 84%
06:00 +10°C° 0 mm 3 m/s 758 mmHg 76%
07:00 +12°C° 0 mm 3 m/s 758 mmHg 67%
08:00 +14°C° 0 mm 3 m/s 758 mmHg 59%
09:00 +16°C° 0 mm 3 m/s 758 mmHg 54%
10:00 +18°C° 0 mm 3 m/s 758 mmHg 49%
11:00 +19°C° 0 mm 3 m/s 758 mmHg 44%
12:00 +20°C° 0 mm 3 m/s 758 mmHg 43%
13:00 +20°C° 0 mm 3 m/s 758 mmHg 41%
14:00 +21°C° 0 mm 3 m/s 758 mmHg 40%
15:00 +21°C° 0 mm 3 m/s 758 mmHg 43%
16:00 +20°C° 0 mm 3 m/s 758 mmHg 46%
17:00 +20°C° 0 mm 3 m/s 758 mmHg 49%
18:00 +18°C° 0 mm 2 m/s 758 mmHg 58%
19:00 +15°C° 0 mm 2 m/s 757 mmHg 66%
20:00 +13°C° 0 mm 2 m/s 757 mmHg 75%
21:00 +12°C° 0 mm 2 m/s 758 mmHg 77%
22:00 +10°C° 0 mm 2 m/s 758 mmHg 79%
23:00 +10°C° 0 mm 2 m/s 758 mmHg 81%
Arată mai mult

Formular de consimțământ

Meteoprog și furnizorii noștri de servicii pot stoca și accesa date personale, precum cookies, identificatori de dispozitiv sau alte tehnologii similare pe dispozitivul dumneavoastră și procesa astfel de date pentru a personaliza conținutul și reclamele, dar și pentru a oferi caracteristici de social media și pentru a analiza traficul.

  • Stocarea și/sau accesarea informațiilor pe dispozitivul dumneavoastră

    Cookies, identificatori de dispozitiv sau alte informații pot fi stocate sau accesate pe dispozitiv în scopurile indicate mai sus.

  • Reclame și conținut personalizat, evaluarea reclamelor și a conținutului, informații despre audiențe și dezvoltarea produselor

    Reclamele și conținutul pot fi personalizate pe baza unui profil. Pot fi adăugate date suplimentare pentru a personaliza mai bine reclamele și conținutul. Performanța reclamelor și conținutului poate fi măsurată. Pot fi obținute informații despre utilizatorii care au văzut reclamele și conținutul. Aceste date pot fi utilizate pentru a dezvolta sau îmbunătăți experiența utilizatorilor, sistemele și software-ul.

Dând clic pe ‘Sunt de acord’, permiteți utilizarea cookie-urilor menționate, a identificatorilor de dispozitiv, balizelor web sau altor tehnologii similare. Setările pot fi modificate din browser-ul dispozitivului dumneavoastră.

În anumite scopuri, interesele legitime pot prima asupra consimțământului. Puteți citi mai multe informații în acest sens în Politica privind Confidențialitatea Datelor și Cookie.